Location: Andrest
(43.3200°N, 0.0641°E)
Time: 21:28:16
(UTC+00:00)

Lacrosse 4 Rocket - Pass Details

Date: 01 December 2020
Orbit: 537 x 620 km, 68.0° (Epoch: 20 January)

Event Time Altitude Azimuth Distance (km) Brightness Sun altitude
Rises 17:43:09 0° 162° (SSE) 2,678 4.8 -13.8°
Reaches altitude 10° 17:46:12 10° 137° (SE) 1,799 3.7 -14.4°
Enters shadow 17:47:09 13° 123° (ESE) 1,642 3.4 -14.5°
